TimeEST,TemperatureF,Dew PointF,Humidity,Sea Level PressureIn,VisibilityMPH,Wind Direction,Wind SpeedMPH,Gust SpeedMPH,PrecipitationIn,Events,Conditions,WindDirDegrees,DateUTC
12:15 AM,38.3,27.0,64,30.19,10.0,Calm,Calm,-,N/A,,Overcast,0,2013-01-06 05:15:00
12:35 AM,37.9,27.5,66,30.19,10.0,Calm,Calm,-,N/A,,Overcast,0,2013-01-06 05:35:00
12:55 AM,38.3,27.1,64,30.18,10.0,SSW,3.5,-,N/A,,Overcast,200,2013-01-06 05:55:00
1:15 AM,38.3,27.0,64,30.18,10.0,SSW,3.5,-,N/A,,Overcast,200,2013-01-06 06:15:00
1:35 AM,38.3,26.6,63,30.17,10.0,SW,5.8,-,N/A,,Overcast,220,2013-01-06 06:35:00
1:55 AM,38.7,27.0,63,30.17,10.0,SW,5.8,-,N/A,,Overcast,230,2013-01-06 06:55:00
2:15 AM,39.2,26.6,61,30.18,10.0,WSW,4.6,-,N/A,,Overcast,250,2013-01-06 07:15:00
2:35 AM,39.2,26.6,61,30.18,10.0,WSW,6.9,-,N/A,,Overcast,240,2013-01-06 07:35:00
2:55 AM,39.2,26.8,61,30.17,10.0,WSW,5.8,-,N/A,,Overcast,240,2013-01-06 07:55:00
3:15 AM,39.4,26.6,60,30.17,10.0,WSW,5.8,-,N/A,,Overcast,240,2013-01-06 08:15:00
3:35 AM,39.2,26.8,61,30.16,10.0,WSW,5.8,-,N/A,,Overcast,240,2013-01-06 08:35:00
3:55 AM,39.2,27.0,62,30.16,10.0,SW,4.6,-,N/A,,Overcast,230,2013-01-06 08:55:00
4:15 AM,39.4,26.8,61,30.15,10.0,WSW,4.6,-,N/A,,Overcast,240,2013-01-06 09:15:00
4:35 AM,39.4,26.8,61,30.14,10.0,SW,5.8,-,N/A,,Overcast,230,2013-01-06 09:35:00
4:55 AM,39.2,27.0,62,30.14,10.0,SW,5.8,-,N/A,,Overcast,230,2013-01-06 09:55:00
5:15 AM,39.4,27.0,61,30.13,10.0,SW,4.6,-,N/A,,Overcast,220,2013-01-06 10:15:00
5:35 AM,39.2,27.1,62,30.12,10.0,SW,4.6,-,N/A,,Overcast,230,2013-01-06 10:35:00
5:55 AM,39.4,27.5,62,30.12,10.0,WSW,9.2,-,N/A,,Overcast,240,2013-01-06 10:55:00
6:15 AM,39.4,27.7,63,30.13,10.0,SW,6.9,-,N/A,,Overcast,230,2013-01-06 11:15:00
6:35 AM,39.2,27.7,63,30.13,10.0,SW,4.6,-,N/A,,Overcast,230,2013-01-06 11:35:00
6:55 AM,39.4,27.9,63,30.13,10.0,WSW,5.8,-,N/A,,Overcast,240,2013-01-06 11:55:00
7:15 AM,39.2,28.2,65,30.14,10.0,WSW,4.6,-,N/A,,Overcast,240,2013-01-06 12:15:00
7:35 AM,39.4,28.4,65,30.14,10.0,WSW,8.1,-,N/A,,Overcast,240,2013-01-06 12:35:00
7:55 AM,39.4,28.4,65,30.15,10.0,WSW,8.1,-,N/A,,Overcast,250,2013-01-06 12:55:00
8:15 AM,39.4,28.4,65,30.15,10.0,WSW,6.9,-,N/A,,Overcast,240,2013-01-06 13:15:00
8:35 AM,39.2,28.9,67,30.15,10.0,SW,6.9,-,N/A,,Overcast,230,2013-01-06 13:35:00
8:55 AM,39.4,29.1,67,30.15,10.0,WSW,5.8,-,N/A,,Overcast,240,2013-01-06 13:55:00
9:35 AM,39.9,29.5,66,30.15,10.0,WSW,4.6,-,N/A,,Overcast,250,2013-01-06 14:35:00
9:55 AM,40.1,29.8,67,30.15,10.0,SW,5.8,-,N/A,,Overcast,230,2013-01-06 14:55:00
10:15 AM,40.5,29.7,65,30.15,10.0,WSW,5.8,-,N/A,,Overcast,240,2013-01-06 15:15:00
10:35 AM,41.0,29.5,64,30.15,10.0,SW,6.9,-,N/A,,Overcast,230,2013-01-06 15:35:00
10:55 AM,41.7,30.0,63,30.14,10.0,SW,6.9,-,N/A,,Overcast,220,2013-01-06 15:55:00
11:15 AM,42.3,30.2,62,30.13,10.0,WSW,6.9,-,N/A,,Overcast,250,2013-01-06 16:15:00
11:35 AM,42.4,30.0,61,30.12,10.0,SW,9.2,-,N/A,,Overcast,230,2013-01-06 16:35:00
11:55 AM,42.3,29.8,61,30.11,10.0,WSW,9.2,-,N/A,,Overcast,240,2013-01-06 16:55:00
12:35 PM,42.8,29.8,60,30.09,10.0,WSW,10.4,-,N/A,,Overcast,250,2013-01-06 17:35:00
12:55 PM,42.8,29.8,60,30.08,10.0,WSW,10.4,17.3,N/A,,Overcast,250,2013-01-06 17:55:00
1:15 PM,43.0,29.8,60,30.08,10.0,WSW,5.8,-,N/A,,Overcast,240,2013-01-06 18:15:00
1:35 PM,43.0,29.7,59,30.07,10.0,WSW,9.2,-,N/A,,Overcast,240,2013-01-06 18:35:00
1:55 PM,43.2,29.5,59,30.06,10.0,SW,11.5,16.1,N/A,,Overcast,220,2013-01-06 18:55:00
2:15 PM,43.7,30.0,59,30.05,10.0,WSW,8.1,-,N/A,,Overcast,240,2013-01-06 19:15:00
2:35 PM,43.0,29.8,60,30.06,10.0,SW,8.1,-,N/A,,Overcast,230,2013-01-06 19:35:00
2:55 PM,43.0,29.8,60,30.06,10.0,SW,8.1,17.3,N/A,,Overcast,230,2013-01-06 19:55:00
3:15 PM,43.0,29.7,59,30.07,10.0,WSW,9.2,16.1,N/A,,Overcast,240,2013-01-06 20:15:00
3:35 PM,43.0,29.8,60,30.08,10.0,WSW,9.2,-,N/A,,Overcast,250,2013-01-06 20:35:00
3:55 PM,42.8,29.5,59,30.09,10.0,WSW,6.9,-,N/A,,Overcast,250,2013-01-06 20:55:00
4:15 PM,42.8,29.7,60,30.09,10.0,WSW,9.2,-,N/A,,Overcast,250,2013-01-06 21:15:00
4:35 PM,42.8,29.5,59,30.09,10.0,West,9.2,-,N/A,,Overcast,270,2013-01-06 21:35:00
4:55 PM,42.8,29.5,59,30.10,10.0,WSW,8.1,16.1,N/A,,Overcast,250,2013-01-06 21:55:00
5:15 PM,42.6,29.7,60,30.10,10.0,WSW,6.9,-,N/A,,Overcast,240,2013-01-06 22:15:00
5:35 PM,42.4,29.7,61,30.10,10.0,WSW,5.8,-,N/A,,Overcast,240,2013-01-06 22:35:00
5:55 PM,42.4,29.7,61,30.11,10.0,WSW,6.9,-,N/A,,Overcast,250,2013-01-06 22:55:00
6:15 PM,42.4,30.0,61,30.12,10.0,West,5.8,-,N/A,,Overcast,260,2013-01-06 23:15:00
6:35 PM,42.6,30.2,61,30.13,10.0,West,8.1,-,N/A,,Overcast,280,2013-01-06 23:35:00
7:15 PM,40.5,30.7,68,30.17,10.0,WNW,11.5,18.4,N/A,,Overcast,300,2013-01-07 00:15:00
7:35 PM,40.1,29.5,66,30.18,10.0,WNW,8.1,18.4,N/A,,Overcast,300,2013-01-07 00:35:00
7:55 PM,39.2,28.8,66,30.19,10.0,NW,12.7,21.9,N/A,,Overcast,320,2013-01-07 00:55:00
8:15 PM,38.5,28.2,67,30.20,10.0,WNW,10.4,21.9,N/A,,Overcast,300,2013-01-07 01:15:00
8:35 PM,38.1,28.4,68,30.21,10.0,NW,6.9,-,N/A,,Overcast,320,2013-01-07 01:35:00
8:55 PM,37.0,28.2,70,30.22,10.0,NW,9.2,-,N/A,,Overcast,310,2013-01-07 01:55:00
9:15 PM,36.0,27.3,71,30.24,10.0,WNW,10.4,-,N/A,,Overcast,300,2013-01-07 02:15:00
9:35 PM,35.2,25.2,67,30.25,10.0,WNW,11.5,25.3,N/A,,Overcast,290,2013-01-07 02:35:00
9:55 PM,34.7,24.8,67,30.26,10.0,WNW,8.1,17.3,N/A,,Overcast,290,2013-01-07 02:55:00
10:15 PM,34.3,23.9,66,30.27,10.0,West,11.5,18.4,N/A,,Overcast,280,2013-01-07 03:15:00
10:35 PM,34.0,23.7,66,30.29,10.0,WNW,4.6,-,N/A,,Overcast,300,2013-01-07 03:35:00
11:35 PM,33.3,24.6,71,30.30,10.0,NW,9.2,-,N/A,,Overcast,310,2013-01-07 04:35:00
11:55 PM,32.9,23.9,69,30.31,10.0,NW,6.9,-,N/A,,Overcast,310,2013-01-07 04:55:00